Time,TemperatureF,DewpointF,PressureIn,WindDirection,WindDirectionDegrees,WindSpeedMPH,WindSpeedGustMPH,Humidity,HourlyPrecipIn,Conditions,Clouds,dailyrainin,SoftwareType,DateUTC
2013-04-16 00:00:00,59.1,50.5,29.67,NNW,342,7.0,21.0,73,0.00,,---,0.00,VWS V14.01,2013-04-16 05:00:00,
2013-04-16 00:05:00,58.8,50.2,29.67,NNE,32,7.0,11.0,73,0.00,,---,0.00,VWS V14.01,2013-04-16 05:05:00,
2013-04-16 00:10:00,58.5,49.9,29.67,North,11,11.0,11.0,73,0.00,,---,0.00,VWS V14.01,2013-04-16 05:10:00,
2013-04-16 00:15:00,58.3,49.7,29.66,NE,35,10.0,14.0,73,0.00,,---,0.00,VWS V14.01,2013-04-16 05:15:00,
2013-04-16 00:20:00,58.1,49.1,29.66,North,11,10.0,15.0,72,0.00,,---,0.00,VWS V14.01,2013-04-16 05:20:00,
2013-04-16 00:25:00,57.7,49.1,29.66,NNW,336,4.0,15.0,73,0.00,,---,0.00,VWS V14.01,2013-04-16 05:25:00,
2013-04-16 00:30:00,57.4,48.8,29.66,North,358,8.0,15.0,73,0.00,,---,0.00,VWS V14.01,2013-04-16 05:30:00,
2013-04-16 00:35:00,57.0,48.4,29.66,North,352,8.0,11.0,73,0.00,,---,0.00,VWS V14.01,2013-04-16 05:35:00,
2013-04-16 00:40:00,56.7,48.2,29.66,NNE,29,11.0,12.0,73,0.00,,---,0.00,VWS V14.01,2013-04-16 05:40:00,
2013-04-16 00:45:00,56.5,47.6,29.66,NNE,30,9.0,14.0,72,0.00,,---,0.00,VWS V14.01,2013-04-16 05:45:00,
2013-04-16 00:50:00,55.9,47.0,29.66,North,9,11.0,14.0,72,0.00,,---,0.00,VWS V14.01,2013-04-16 05:50:00,
2013-04-16 00:55:00,55.9,46.7,29.66,NNE,18,11.0,14.0,71,0.00,,---,0.00,VWS V14.01,2013-04-16 05:55:00,
2013-04-16 01:00:00,55.5,46.6,29.66,NNE,16,8.0,14.0,72,0.00,,---,0.00,VWS V14.01,2013-04-16 06:00:00,
2013-04-16 01:05:00,55.2,46.3,29.66,NNE,25,12.0,13.0,72,0.00,,---,0.00,VWS V14.01,2013-04-16 06:05:00,
2013-04-16 01:11:00,55.2,46.0,29.66,North,1,8.0,14.0,71,0.00,,---,0.00,VWS V14.01,2013-04-16 06:11:00,
2013-04-16 01:16:00,54.8,46.0,29.66,NNE,13,5.0,14.0,72,0.00,,---,0.00,VWS V14.01,2013-04-16 06:16:00,
2013-04-16 01:21:00,54.7,45.9,29.66,North,6,7.0,14.0,72,0.00,,---,0.00,VWS V14.01,2013-04-16 06:21:00,
2013-04-16 01:26:00,54.4,45.6,29.66,NNW,345,10.0,14.0,72,0.00,,---,0.00,VWS V14.01,2013-04-16 06:26:00,
2013-04-16 01:31:00,54.4,45.2,29.66,North,11,9.0,11.0,71,0.00,,---,0.00,VWS V14.01,2013-04-16 06:31:00,
2013-04-16 01:36:00,54.3,45.5,29.66,NNE,17,7.0,11.0,72,0.00,,---,0.00,VWS V14.01,2013-04-16 06:36:00,
2013-04-16 01:41:00,54.1,45.3,29.66,NNE,15,8.0,12.0,72,0.00,,---,0.00,VWS V14.01,2013-04-16 06:41:00,
2013-04-16 01:46:00,53.9,45.1,29.65,NNE,12,7.0,12.0,72,0.00,,---,0.00,VWS V14.01,2013-04-16 06:46:00,
2013-04-16 01:51:00,53.4,45.3,29.66,NW,323,4.0,12.0,74,0.00,,---,0.00,VWS V14.01,2013-04-16 06:51:00,
2013-04-16 01:57:00,53.2,45.1,29.66,North,350,5.0,12.0,74,0.00,,---,0.00,VWS V14.01,2013-04-16 06:57:00,
2013-04-16 02:02:00,53.2,45.5,29.66,North,6,5.0,7.0,75,0.00,,---,0.00,VWS V14.01,2013-04-16 07:02:00,
2013-04-16 02:07:00,52.9,45.2,29.66,NW,309,4.0,8.0,75,0.00,,---,0.00,VWS V14.01,2013-04-16 07:07:00,
2013-04-16 02:12:00,52.8,45.1,29.66,NNE,15,3.0,8.0,75,0.00,,---,0.00,VWS V14.01,2013-04-16 07:12:00,
2013-04-16 02:17:00,52.6,44.9,29.66,NNW,336,5.0,8.0,75,0.00,,---,0.00,VWS V14.01,2013-04-16 07:17:00,
2013-04-16 02:22:00,52.4,45.1,29.66,NNW,344,5.0,8.0,76,0.00,,---,0.00,VWS V14.01,2013-04-16 07:22:00,
2013-04-16 02:27:00,52.2,44.9,29.66,North,9,8.0,9.0,76,0.00,,---,0.00,VWS V14.01,2013-04-16 07:27:00,
2013-04-16 02:32:00,52.2,44.9,29.66,NNE,15,4.0,8.0,76,0.00,,---,0.00,VWS V14.01,2013-04-16 07:32:00,
2013-04-16 02:37:00,52.1,45.1,29.66,NNW,344,2.0,8.0,77,0.00,,---,0.00,VWS V14.01,2013-04-16 07:37:00,
2013-04-16 02:42:00,51.9,44.9,29.65,NNE,21,10.0,10.0,77,0.00,,---,0.00,VWS V14.01,2013-04-16 07:42:00,
2013-04-16 02:47:00,51.8,45.2,29.66,North,354,3.0,11.0,78,0.00,,---,0.00,VWS V14.01,2013-04-16 07:47:00,
2013-04-16 02:52:00,51.5,44.9,29.66,NW,324,3.0,11.0,78,0.00,,---,0.00,VWS V14.01,2013-04-16 07:52:00,
2013-04-16 02:57:00,51.1,44.5,29.65,NNW,340,2.0,11.0,78,0.00,,---,0.00,VWS V14.01,2013-04-16 07:57:00,
2013-04-16 03:02:00,50.8,44.5,29.66,NW,317,2.0,2.0,79,0.00,,---,0.00,VWS V14.01,2013-04-16 08:02:00,
2013-04-16 03:08:00,50.3,44.0,29.66,North,354,6.0,8.0,79,0.00,,---,0.00,VWS V14.01,2013-04-16 08:08:00,
2013-04-16 03:13:00,50.1,44.2,29.66,WNW,298,2.0,8.0,80,0.00,,---,0.00,VWS V14.01,2013-04-16 08:13:00,
2013-04-16 03:18:00,50.0,44.1,29.65,NNE,12,4.0,8.0,80,0.00,,---,0.00,VWS V14.01,2013-04-16 08:18:00,
2013-04-16 03:23:00,49.8,44.2,29.66,WNW,297,2.0,8.0,81,0.00,,---,0.00,VWS V14.01,2013-04-16 08:23:00,
2013-04-16 03:28:00,49.5,44.2,29.66,NNW,342,0.0,8.0,82,0.00,,---,0.00,VWS V14.01,2013-04-16 08:28:00,
2013-04-16 03:33:00,49.3,44.4,29.66,NW,319,2.0,3.0,83,0.00,,---,0.00,VWS V14.01,2013-04-16 08:33:00,
2013-04-16 03:38:00,49.0,44.1,29.67,WNW,301,3.0,4.0,83,0.00,,---,0.00,VWS V14.01,2013-04-16 08:38:00,
2013-04-16 03:43:00,48.8,44.2,29.67,NW,324,1.0,4.0,84,0.00,,---,0.00,VWS V14.01,2013-04-16 08:43:00,
2013-04-16 03:49:00,49.0,44.1,29.66,NNW,328,5.0,6.0,83,0.00,,---,0.00,VWS V14.01,2013-04-16 08:49:00,
2013-04-16 03:54:00,49.2,44.0,29.67,WNW,297,4.0,6.0,82,0.00,,---,0.00,VWS V14.01,2013-04-16 08:54:00,
2013-04-16 03:59:00,49.2,44.0,29.67,NNW,329,3.0,6.0,82,0.00,,---,0.00,VWS V14.01,2013-04-16 08:59:00,
2013-04-16 04:04:00,49.1,43.8,29.67,NW,326,2.0,5.0,82,0.00,,---,0.00,VWS V14.01,2013-04-16 09:04:00,
2013-04-16 04:09:00,49.1,44.2,29.67,NW,312,2.0,6.0,83,0.00,,---,0.00,VWS V14.01,2013-04-16 09:09:00,
2013-04-16 04:14:00,49.0,44.1,29.67,NNW,335,2.0,6.0,83,0.00,,---,0.00,VWS V14.01,2013-04-16 09:14:00,
2013-04-16 04:19:00,48.9,44.0,29.67,WNW,295,2.0,6.0,83,0.00,,---,0.00,VWS V14.01,2013-04-16 09:19:00,
2013-04-16 04:24:00,48.8,43.9,29.67,WNW,302,1.0,6.0,83,0.00,,---,0.00,VWS V14.01,2013-04-16 09:24:00,
2013-04-16 04:29:00,48.5,43.9,29.68,NNW,329,3.0,6.0,84,0.00,,---,0.00,VWS V14.01,2013-04-16 09:29:00,
2013-04-16 04:34:00,48.3,44.0,29.67,NNW,330,4.0,5.0,85,0.00,,---,0.00,VWS V14.01,2013-04-16 09:34:00,
2013-04-16 04:40:00,48.4,44.1,29.67,NW,322,4.0,5.0,85,0.00,,---,0.00,VWS V14.01,2013-04-16 09:40:00,
2013-04-16 04:45:00,48.4,43.8,29.68,NW,322,3.0,5.0,84,0.00,,---,0.00,VWS V14.01,2013-04-16 09:45:00,
2013-04-16 04:50:00,48.2,43.9,29.69,WNW,296,2.0,5.0,85,0.00,,---,0.00,VWS V14.01,2013-04-16 09:50:00,
2013-04-16 04:55:00,48.1,44.1,29.70,WNW,298,4.0,6.0,86,0.00,,---,0.00,VWS V14.01,2013-04-16 09:55:00,
2013-04-16 05:00:00,47.8,43.8,29.70,WNW,302,6.0,9.0,86,0.00,,---,0.00,VWS V14.01,2013-04-16 10:00:00,
2013-04-16 05:05:00,47.7,43.7,29.70,NW,315,5.0,7.0,86,0.00,,---,0.00,VWS V14.01,2013-04-16 10:05:00,
2013-04-16 05:10:00,47.7,43.7,29.71,NNW,333,5.0,7.0,86,0.00,,---,0.00,VWS V14.01,2013-04-16 10:10:00,
2013-04-16 05:15:00,47.8,43.8,29.71,NW,314,3.0,7.0,86,0.00,,---,0.00,VWS V14.01,2013-04-16 10:15:00,
2013-04-16 05:20:00,47.7,43.7,29.71,NW,324,5.0,7.0,86,0.00,,---,0.00,VWS V14.01,2013-04-16 10:20:00,
2013-04-16 05:25:00,47.7,44.0,29.71,NW,315,3.0,7.0,87,0.00,,---,0.00,VWS V14.01,2013-04-16 10:25:00,
2013-04-16 05:30:00,47.6,43.9,29.72,NW,316,4.0,7.0,87,0.00,,---,0.00,VWS V14.01,2013-04-16 10:30:00,
2013-04-16 05:35:00,47.6,43.9,29.72,NW,313,5.0,7.0,87,0.00,,---,0.00,VWS V14.01,2013-04-16 10:35:00,
2013-04-16 05:40:00,47.9,43.9,29.72,NNW,329,7.0,9.0,86,0.00,,---,0.00,VWS V14.01,2013-04-16 10:40:00,
2013-04-16 05:45:00,48.2,43.9,29.72,NNW,339,7.0,9.0,85,0.00,,---,0.00,VWS V14.01,2013-04-16 10:45:00,
2013-04-16 05:50:00,47.5,44.1,29.73,NW,318,6.0,9.0,88,0.00,,---,0.00,VWS V14.01,2013-04-16 10:50:00,
2013-04-16 05:55:00,47.5,44.1,29.73,NW,318,6.0,9.0,88,0.00,,---,0.00,VWS V14.01,2013-04-16 10:55:00,
2013-04-16 06:00:00,47.5,44.1,29.73,NW,318,6.0,9.0,88,0.00,,---,0.00,VWS V14.01,2013-04-16 11:00:00,
2013-04-16 06:06:00,47.5,44.1,29.74,NW,318,6.0,6.0,88,0.00,,---,0.00,VWS V14.01,2013-04-16 11:06:00,
2013-04-16 06:11:00,47.5,44.1,29.74,NW,318,6.0,6.0,88,0.00,,---,0.00,VWS V14.01,2013-04-16 11:11:00,
2013-04-16 06:16:00,47.5,44.1,29.74,NW,318,6.0,6.0,88,0.00,,---,0.00,VWS V14.01,2013-04-16 11:16:00,
2013-04-16 06:21:00,47.5,44.1,29.75,NW,318,6.0,6.0,88,0.00,,---,0.00,VWS V14.01,2013-04-16 11:21:00,
2013-04-16 06:26:00,47.3,43.0,29.75,NW,313,6.0,13.0,85,0.00,,---,0.00,VWS V14.01,2013-04-16 11:26:00,
2013-04-16 06:31:00,47.2,42.9,29.75,NNW,337,11.0,14.0,85,0.00,,---,0.00,VWS V14.01,2013-04-16 11:31:00,
2013-04-16 06:36:00,47.1,42.8,29.75,NW,307,8.0,14.0,85,0.00,,---,0.00,VWS V14.01,2013-04-16 11:36:00,
2013-04-16 06:41:00,47.1,42.8,29.76,NNW,340,11.0,14.0,85,0.00,,---,0.00,VWS V14.01,2013-04-16 11:41:00,
2013-04-16 06:46:00,47.1,42.8,29.76,NW,316,6.0,14.0,85,0.00,,---,0.00,VWS V14.01,2013-04-16 11:46:00,
2013-04-16 06:51:00,47.0,43.0,29.77,NW,324,9.0,14.0,86,0.00,,---,0.00,VWS V14.01,2013-04-16 11:51:00,
2013-04-16 06:57:00,47.1,43.1,29.77,NNW,330,7.0,14.0,86,0.00,,---,0.00,VWS V14.01,2013-04-16 11:57:00,
2013-04-16 07:02:00,47.2,43.2,29.78,NW,313,5.0,8.0,86,0.00,,---,0.00,VWS V14.01,2013-04-16 12:02:00,
2013-04-16 07:07:00,47.3,43.3,29.78,North,349,7.0,11.0,86,0.00,,---,0.00,VWS V14.01,2013-04-16 12:07:00,
2013-04-16 07:12:00,47.5,43.5,29.78,North,349,7.0,11.0,86,0.00,,---,0.00,VWS V14.01,2013-04-16 12:12:00,
2013-04-16 07:17:00,47.8,43.8,29.79,North,359,7.0,12.0,86,0.00,,---,0.00,VWS V14.01,2013-04-16 12:17:00,
2013-04-16 07:22:00,48.0,43.7,29.79,NNE,21,5.0,12.0,85,0.00,,---,0.00,VWS V14.01,2013-04-16 12:22:00,
2013-04-16 07:27:00,48.3,44.0,29.79,NNW,338,8.0,12.0,85,0.00,,---,0.00,VWS V14.01,2013-04-16 12:27:00,
2013-04-16 07:32:00,48.7,44.4,29.80,NNW,332,7.0,11.0,85,0.00,,---,0.00,VWS V14.01,2013-04-16 12:32:00,
2013-04-16 07:37:00,48.9,44.3,29.80,North,349,13.0,13.0,84,0.00,,---,0.00,VWS V14.01,2013-04-16 12:37:00,
2013-04-16 07:43:00,49.3,44.4,29.81,NNW,347,8.0,13.0,83,0.00,,---,0.00,VWS V14.01,2013-04-16 12:43:00,
2013-04-16 07:48:00,49.5,44.2,29.81,NW,322,4.0,15.0,82,0.00,,---,0.00,VWS V14.01,2013-04-16 12:48:00,
2013-04-16 07:53:00,49.9,44.3,29.82,NW,304,10.0,15.0,81,0.00,,---,0.00,VWS V14.01,2013-04-16 12:53:00,
2013-04-16 07:58:00,50.3,44.4,29.82,NNW,333,13.0,17.0,80,0.00,,---,0.00,VWS V14.01,2013-04-16 12:58:00,
2013-04-16 08:03:00,50.7,44.4,29.82,NNW,329,8.0,13.0,79,0.00,,---,0.00,VWS V14.01,2013-04-16 13:03:00,
2013-04-16 08:08:00,51.0,44.0,29.82,NW,322,11.0,15.0,77,0.00,,---,0.00,VWS V14.01,2013-04-16 13:08:00,
2013-04-16 08:13:00,51.4,44.1,29.82,North,349,17.0,18.0,76,0.00,,---,0.00,VWS V14.01,2013-04-16 13:13:00,
2013-04-16 08:18:00,51.7,44.4,29.83,West,268,11.0,18.0,76,0.00,,---,0.00,VWS V14.01,2013-04-16 13:18:00,
2013-04-16 08:23:00,52.0,44.7,29.83,North,5,15.0,20.0,76,0.00,,---,0.00,VWS V14.01,2013-04-16 13:23:00,
2013-04-16 08:28:00,52.3,44.6,29.84,NW,319,11.0,20.0,75,0.00,,---,0.00,VWS V14.01,2013-04-16 13:28:00,
2013-04-16 08:33:00,52.4,44.4,29.84,NNW,333,10.0,18.0,74,0.00,,---,0.00,VWS V14.01,2013-04-16 13:33:00,
2013-04-16 08:39:00,52.7,44.3,29.84,NNW,336,13.0,18.0,73,0.00,,---,0.00,VWS V14.01,2013-04-16 13:39:00,
2013-04-16 08:44:00,52.9,44.1,29.84,North,357,20.0,21.0,72,0.00,,---,0.00,VWS V14.01,2013-04-16 13:44:00,
2013-04-16 08:49:00,53.1,44.3,29.85,NNE,19,14.0,21.0,72,0.00,,---,0.00,VWS V14.01,2013-04-16 13:49:00,
2013-04-16 08:54:00,53.1,43.6,29.85,NNW,339,15.0,21.0,70,0.00,,---,0.00,VWS V14.01,2013-04-16 13:54:00,
2013-04-16 08:59:00,53.2,43.7,29.86,NNW,345,15.0,21.0,70,0.00,,---,0.00,VWS V14.01,2013-04-16 13:59:00,
2013-04-16 09:04:00,53.2,43.7,29.86,NNW,342,16.0,21.0,70,0.00,,---,0.00,VWS V14.01,2013-04-16 14:04:00,
2013-04-16 09:09:00,53.7,44.2,29.86,North,358,17.0,21.0,70,0.00,,---,0.00,VWS V14.01,2013-04-16 14:09:00,
2013-04-16 09:14:00,53.8,43.9,29.86,NNW,334,9.0,21.0,69,0.00,,---,0.00,VWS V14.01,2013-04-16 14:14:00,
2013-04-16 09:19:00,53.7,43.8,29.86,North,4,12.0,21.0,69,0.00,,---,0.00,VWS V14.01,2013-04-16 14:19:00,
2013-04-16 09:24:00,53.7,43.8,29.87,WNW,302,13.0,21.0,69,0.00,,---,0.00,VWS V14.01,2013-04-16 14:24:00,
2013-04-16 09:30:00,53.8,43.9,29.87,NW,319,15.0,21.0,69,0.00,,---,0.00,VWS V14.01,2013-04-16 14:30:00,
2013-04-16 09:35:00,53.9,44.0,29.87,NW,317,11.0,18.0,69,0.00,,---,0.00,VWS V14.01,2013-04-16 14:35:00,
2013-04-16 09:40:00,54.2,44.3,29.87,NNW,332,11.0,21.0,69,0.00,,---,0.00,VWS V14.01,2013-04-16 14:40:00,
2013-04-16 09:45:00,54.5,44.9,29.88,North,360,16.0,21.0,70,0.00,,---,0.00,VWS V14.01,2013-04-16 14:45:00,
2013-04-16 09:50:00,54.7,44.4,29.88,North,350,13.0,21.0,68,0.00,,---,0.00,VWS V14.01,2013-04-16 14:50:00,
2013-04-16 09:55:00,54.8,44.5,29.88,NW,326,14.0,21.0,68,0.00,,---,0.00,VWS V14.01,2013-04-16 14:55:00,
2013-04-16 10:00:00,54.9,44.9,29.88,North,11,16.0,21.0,69,0.00,,---,0.00,VWS V14.01,2013-04-16 15:00:00,
2013-04-16 10:06:00,55.2,44.8,29.88,NE,46,13.0,21.0,68,0.00,,---,0.00,VWS V14.01,2013-04-16 15:06:00,
2013-04-16 10:11:00,55.4,45.0,29.88,North,356,10.0,21.0,68,0.00,,---,0.00,VWS V14.01,2013-04-16 15:11:00,
2013-04-16 10:16:00,55.2,44.8,29.88,NW,320,20.0,21.0,68,0.00,,---,0.00,VWS V14.01,2013-04-16 15:16:00,
2013-04-16 10:21:00,55.4,44.6,29.88,NNW,335,16.0,21.0,67,0.00,,---,0.00,VWS V14.01,2013-04-16 15:21:00,
2013-04-16 10:26:00,55.5,44.3,29.88,NNW,344,12.0,21.0,66,0.00,,---,0.00,VWS V14.01,2013-04-16 15:26:00,
2013-04-16 10:31:00,55.6,44.4,29.88,NNW,333,12.0,14.0,66,0.00,,---,0.00,VWS V14.01,2013-04-16 15:31:00,
2013-04-16 10:36:00,55.7,44.5,29.89,NE,39,13.0,21.0,66,0.00,,---,0.00,VWS V14.01,2013-04-16 15:36:00,
2013-04-16 10:42:00,55.8,44.6,29.89,NNW,347,12.0,21.0,66,0.00,,---,0.00,VWS V14.01,2013-04-16 15:42:00,
2013-04-16 10:47:00,55.9,44.7,29.89,NNW,336,9.0,21.0,66,0.00,,---,0.00,VWS V14.01,2013-04-16 15:47:00,
2013-04-16 10:52:00,56.1,44.9,29.89,NNE,13,9.0,21.0,66,0.00,,---,0.00,VWS V14.01,2013-04-16 15:52:00,
2013-04-16 10:57:00,56.6,45.4,29.89,NW,319,10.0,21.0,66,0.00,,---,0.00,VWS V14.01,2013-04-16 15:57:00,
2013-04-16 11:02:00,56.3,44.7,29.89,North,352,17.0,20.0,65,0.00,,---,0.00,VWS V14.01,2013-04-16 16:02:00,
2013-04-16 11:07:00,56.3,45.1,29.90,NNE,18,14.0,20.0,66,0.00,,---,0.00,VWS V14.01,2013-04-16 16:07:00,
2013-04-16 11:12:00,56.7,45.5,29.90,NNW,339,8.0,20.0,66,0.00,,---,0.00,VWS V14.01,2013-04-16 16:12:00,
2013-04-16 11:17:00,56.7,45.9,29.90,NNW,339,15.0,20.0,67,0.00,,---,0.00,VWS V14.01,2013-04-16 16:17:00,
2013-04-16 11:22:00,56.7,45.1,29.90,NNW,336,13.0,20.0,65,0.00,,---,0.00,VWS V14.01,2013-04-16 16:22:00,
2013-04-16 11:27:00,56.7,45.5,29.90,NNE,26,9.0,20.0,66,0.00,,---,0.00,VWS V14.01,2013-04-16 16:27:00,
2013-04-16 11:33:00,56.7,45.5,29.90,NNW,338,9.0,19.0,66,0.00,,---,0.00,VWS V14.01,2013-04-16 16:33:00,
2013-04-16 11:38:00,56.7,45.5,29.90,NW,304,9.0,19.0,66,0.00,,---,0.00,VWS V14.01,2013-04-16 16:38:00,
2013-04-16 11:43:00,56.9,46.1,29.90,North,11,13.0,19.0,67,0.00,,---,0.00,VWS V14.01,2013-04-16 16:43:00,
2013-04-16 11:48:00,57.0,45.4,29.90,NNW,339,9.0,19.0,65,0.00,,---,0.00,VWS V14.01,2013-04-16 16:48:00,
2013-04-16 11:53:00,57.1,45.5,29.90,NE,45,10.0,19.0,65,0.00,,---,0.00,VWS V14.01,2013-04-16 16:53:00,
2013-04-16 11:58:00,57.5,46.2,29.90,North,354,10.0,19.0,66,0.00,,---,0.00,VWS V14.01,2013-04-16 16:58:00,
2013-04-16 12:03:00,57.8,46.1,29.90,NE,39,7.0,18.0,65,0.00,,---,0.00,VWS V14.01,2013-04-16 17:03:00,
2013-04-16 12:08:00,58.2,47.3,29.90,North,359,15.0,20.0,67,0.00,,---,0.00,VWS V14.01,2013-04-16 17:08:00,
2013-04-16 12:13:00,58.3,46.2,29.90,NW,326,13.0,20.0,64,0.00,,---,0.00,VWS V14.01,2013-04-16 17:13:00,
2013-04-16 12:18:00,58.0,45.9,29.89,NNW,344,13.0,20.0,64,0.00,,---,0.00,VWS V14.01,2013-04-16 17:18:00,
2013-04-16 12:23:00,58.3,46.2,29.89,NNW,333,10.0,20.0,64,0.00,,---,0.00,VWS V14.01,2013-04-16 17:23:00,
2013-04-16 12:29:00,58.8,47.1,29.89,NNW,329,10.0,20.0,65,0.00,,---,0.00,VWS V14.01,2013-04-16 17:29:00,
2013-04-16 12:34:00,58.8,46.2,29.89,NNW,328,8.0,17.0,63,0.00,,---,0.00,VWS V14.01,2013-04-16 17:34:00,
2013-04-16 12:39:00,58.8,46.7,29.89,NNW,336,12.0,18.0,64,0.00,,---,0.00,VWS V14.01,2013-04-16 17:39:00,
2013-04-16 12:44:00,59.2,47.0,29.89,NNW,342,9.0,19.0,64,0.00,,---,0.00,VWS V14.01,2013-04-16 17:44:00,
2013-04-16 12:49:00,59.7,47.9,29.89,NNW,333,11.0,19.0,65,0.00,,---,0.00,VWS V14.01,2013-04-16 17:49:00,
2013-04-16 12:54:00,59.5,47.3,29.88,North,11,14.0,20.0,64,0.00,,---,0.00,VWS V14.01,2013-04-16 17:54:00,
2013-04-16 12:59:00,59.5,47.3,29.88,NW,312,9.0,20.0,64,0.00,,---,0.00,VWS V14.01,2013-04-16 17:59:00,
2013-04-16 13:04:00,59.3,47.1,29.88,NNE,21,16.0,19.0,64,0.00,,---,0.00,VWS V14.01,2013-04-16 18:04:00,
2013-04-16 13:09:00,58.7,47.4,29.88,NNE,22,16.0,20.0,66,0.00,,---,0.00,VWS V14.01,2013-04-16 18:09:00,
2013-04-16 13:14:00,59.0,48.1,29.88,North,6,11.0,20.0,67,0.00,,---,0.00,VWS V14.01,2013-04-16 18:14:00,
2013-04-16 13:19:00,59.3,48.4,29.88,NE,36,14.0,21.0,67,0.00,,---,0.00,VWS V14.01,2013-04-16 18:19:00,
2013-04-16 13:25:00,59.1,47.8,29.88,NNE,25,14.0,21.0,66,0.00,,---,0.00,VWS V14.01,2013-04-16 18:25:00,
2013-04-16 13:30:00,59.3,48.0,29.88,WNW,292,7.0,21.0,66,0.00,,---,0.00,VWS V14.01,2013-04-16 18:30:00,
2013-04-16 13:35:00,59.6,48.2,29.88,NW,316,11.0,19.0,66,0.00,,---,0.00,VWS V14.01,2013-04-16 18:35:00,
2013-04-16 13:40:00,60.1,49.1,29.87,NNE,22,10.0,19.0,67,0.00,,---,0.00,VWS V14.01,2013-04-16 18:40:00,
2013-04-16 13:45:00,60.1,48.3,29.87,NNW,340,9.0,19.0,65,0.00,,---,0.00,VWS V14.01,2013-04-16 18:45:00,
2013-04-16 13:50:00,60.0,49.0,29.87,North,6,19.0,19.0,67,0.00,,---,0.00,VWS V14.01,2013-04-16 18:50:00,
2013-04-16 13:55:00,59.3,48.4,29.87,NNE,29,10.0,21.0,67,0.00,,---,0.00,VWS V14.01,2013-04-16 18:55:00,
2013-04-16 14:00:00,59.3,49.1,29.87,NNE,31,12.0,21.0,69,0.00,,---,0.00,VWS V14.01,2013-04-16 19:00:00,
2013-04-16 14:05:00,60.1,49.5,29.87,NNE,12,9.0,18.0,68,0.00,,---,0.00,VWS V14.01,2013-04-16 19:05:00,
2013-04-16 14:10:00,60.3,48.9,29.87,NNE,26,13.0,18.0,66,0.00,,---,0.00,VWS V14.01,2013-04-16 19:10:00,
2013-04-16 14:15:00,60.2,49.6,29.86,NNE,20,13.0,19.0,68,0.00,,---,0.00,VWS V14.01,2013-04-16 19:15:00,
2013-04-16 14:20:00,60.5,49.9,29.87,NNW,347,10.0,19.0,68,0.00,,---,0.00,VWS V14.01,2013-04-16 19:20:00,
2013-04-16 14:25:00,60.2,49.6,29.86,NNE,14,14.0,19.0,68,0.00,,---,0.00,VWS V14.01,2013-04-16 19:25:00,
2013-04-16 14:30:00,59.9,49.3,29.86,NNE,16,16.0,19.0,68,0.00,,---,0.00,VWS V14.01,2013-04-16 19:30:00,
2013-04-16 14:36:00,60.2,50.4,29.86,NNE,31,14.0,17.0,70,0.00,,---,0.00,VWS V14.01,2013-04-16 19:36:00,
2013-04-16 14:41:00,60.5,50.3,29.85,North,10,8.0,20.0,69,0.00,,---,0.00,VWS V14.01,2013-04-16 19:41:00,
2013-04-16 14:46:00,60.8,50.6,29.85,NNE,15,12.0,20.0,69,0.00,,---,0.00,VWS V14.01,2013-04-16 19:46:00,
2013-04-16 14:51:00,60.4,50.2,29.85,North,3,13.0,20.0,69,0.00,,---,0.00,VWS V14.01,2013-04-16 19:51:00,
2013-04-16 14:56:00,60.9,50.3,29.85,North,359,18.0,20.0,68,0.00,,---,0.00,VWS V14.01,2013-04-16 19:56:00,
2013-04-16 15:01:00,60.3,50.1,29.85,NNW,335,13.0,16.0,69,0.00,,---,0.00,VWS V14.01,2013-04-16 20:01:00,
2013-04-16 15:06:00,60.5,50.3,29.85,North,352,12.0,17.0,69,0.00,,---,0.00,VWS V14.01,2013-04-16 20:06:00,
2013-04-16 15:11:00,60.9,50.3,29.85,NE,43,12.0,18.0,68,0.00,,---,0.00,VWS V14.01,2013-04-16 20:11:00,
2013-04-16 15:16:00,60.5,51.1,29.85,NNE,14,13.0,18.0,71,0.00,,---,0.00,VWS V14.01,2013-04-16 20:16:00,
2013-04-16 15:21:00,60.4,50.6,29.85,NNW,345,9.0,18.0,70,0.00,,---,0.00,VWS V14.01,2013-04-16 20:21:00,
2013-04-16 15:27:00,60.5,51.1,29.84,NE,40,11.0,19.0,71,0.00,,---,0.00,VWS V14.01,2013-04-16 20:27:00,
2013-04-16 15:32:00,60.9,51.1,29.84,NE,34,9.0,19.0,70,0.00,,---,0.00,VWS V14.01,2013-04-16 20:32:00,
2013-04-16 15:37:00,60.6,51.2,29.84,North,1,13.0,19.0,71,0.00,,---,0.00,VWS V14.01,2013-04-16 20:37:00,
2013-04-16 15:42:00,60.6,50.8,29.84,North,11,11.0,19.0,70,0.00,,---,0.00,VWS V14.01,2013-04-16 20:42:00,
2013-04-16 15:47:00,61.1,51.6,29.84,NNE,32,14.0,19.0,71,0.00,,---,0.00,VWS V14.01,2013-04-16 20:47:00,
2013-04-16 15:52:00,60.7,50.9,29.84,North,8,11.0,19.0,70,0.00,,---,0.00,VWS V14.01,2013-04-16 20:52:00,
2013-04-16 15:57:00,61.1,51.6,29.84,NE,41,11.0,19.0,71,0.00,,---,0.00,VWS V14.01,2013-04-16 20:57:00,
2013-04-16 16:02:00,61.1,51.2,29.83,North,349,17.0,17.0,70,0.00,,---,0.00,VWS V14.01,2013-04-16 21:02:00,
2013-04-16 16:07:00,60.9,51.1,29.83,NNE,24,13.0,19.0,70,0.00,,---,0.00,VWS V14.01,2013-04-16 21:07:00,
2013-04-16 16:12:00,60.9,51.1,29.83,North,7,17.0,21.0,70,0.00,,---,0.00,VWS V14.01,2013-04-16 21:12:00,
2013-04-16 16:17:00,60.8,51.0,29.83,North,6,12.0,21.0,70,0.00,,---,0.00,VWS V14.01,2013-04-16 21:17:00,
2013-04-16 16:22:00,60.6,51.2,29.83,NNE,15,12.0,21.0,71,0.00,,---,0.00,VWS V14.01,2013-04-16 21:22:00,
2013-04-16 16:27:00,60.2,50.8,29.83,North,11,15.0,21.0,71,0.00,,---,0.00,VWS V14.01,2013-04-16 21:27:00,
2013-04-16 16:32:00,60.2,51.2,29.83,NNE,14,8.0,15.0,72,0.00,,---,0.00,VWS V14.01,2013-04-16 21:32:00,
2013-04-16 16:38:00,59.9,50.9,29.83,NNE,25,13.0,17.0,72,0.00,,---,0.00,VWS V14.01,2013-04-16 21:38:00,
2013-04-16 16:43:00,59.7,50.7,29.83,NE,40,11.0,17.0,72,0.00,,---,0.00,VWS V14.01,2013-04-16 21:43:00,
2013-04-16 16:48:00,59.5,50.8,29.82,NNE,27,12.0,17.0,73,0.00,,---,0.00,VWS V14.01,2013-04-16 21:48:00,
2013-04-16 16:53:00,59.2,50.6,29.82,North,11,17.0,17.0,73,0.00,,---,0.00,VWS V14.01,2013-04-16 21:53:00,
2013-04-16 16:58:00,58.8,50.5,29.82,NNE,18,13.0,17.0,74,0.00,,---,0.00,VWS V14.01,2013-04-16 21:58:00,
2013-04-16 17:03:00,58.5,50.2,29.82,NNE,16,12.0,17.0,74,0.00,,---,0.00,VWS V14.01,2013-04-16 22:03:00,
2013-04-16 17:08:00,58.6,50.7,29.82,NNE,25,10.0,17.0,75,0.00,,---,0.00,VWS V14.01,2013-04-16 22:08:00,
2013-04-16 17:13:00,58.6,50.7,29.82,NNW,340,7.0,17.0,75,0.00,,---,0.00,VWS V14.01,2013-04-16 22:13:00,
2013-04-16 17:18:00,58.7,50.8,29.82,NNW,329,9.0,17.0,75,0.00,,---,0.00,VWS V14.01,2013-04-16 22:18:00,
2013-04-16 17:23:00,59.0,51.1,29.82,NE,36,12.0,17.0,75,0.00,,---,0.00,VWS V14.01,2013-04-16 22:23:00,
2013-04-16 17:28:00,58.8,50.9,29.82,NNE,15,9.0,17.0,75,0.00,,---,0.00,VWS V14.01,2013-04-16 22:28:00,
2013-04-16 17:33:00,58.7,50.8,29.82,NNW,333,11.0,14.0,75,0.00,,---,0.00,VWS V14.01,2013-04-16 22:33:00,
2013-04-16 17:39:00,58.8,51.3,29.82,NNW,345,10.0,15.0,76,0.00,,---,0.00,VWS V14.01,2013-04-16 22:39:00,
2013-04-16 17:44:00,59.3,51.4,29.82,NNW,335,7.0,15.0,75,0.00,,---,0.00,VWS V14.01,2013-04-16 22:44:00,
2013-04-16 17:49:00,59.3,51.4,29.82,NNE,18,10.0,15.0,75,0.00,,---,0.00,VWS V14.01,2013-04-16 22:49:00,
2013-04-16 17:54:00,59.2,51.7,29.81,North,360,9.0,15.0,76,0.00,,---,0.00,VWS V14.01,2013-04-16 22:54:00,
2013-04-16 17:59:00,59.3,51.4,29.81,NNW,339,12.0,16.0,75,0.00,,---,0.00,VWS V14.01,2013-04-16 22:59:00,
2013-04-16 18:04:00,59.0,51.1,29.81,NNW,345,13.0,14.0,75,0.00,,---,0.00,VWS V14.01,2013-04-16 23:04:00,
2013-04-16 18:09:00,59.0,51.5,29.81,NNW,342,10.0,14.0,76,0.00,,---,0.00,VWS V14.01,2013-04-16 23:09:00,
2013-04-16 18:14:00,58.9,51.0,29.81,NW,309,11.0,14.0,75,0.00,,---,0.00,VWS V14.01,2013-04-16 23:14:00,
2013-04-16 18:19:00,58.5,51.0,29.81,NNW,333,6.0,14.0,76,0.00,,---,0.00,VWS V14.01,2013-04-16 23:19:00,
2013-04-16 18:24:00,58.5,51.0,29.82,NNE,19,12.0,14.0,76,0.00,,---,0.00,VWS V14.01,2013-04-16 23:24:00,
2013-04-16 18:29:00,58.2,51.0,29.82,NW,326,8.0,14.0,77,0.00,,---,0.00,VWS V14.01,2013-04-16 23:29:00,
2013-04-16 18:35:00,57.7,50.9,29.82,NW,326,6.0,14.0,78,0.00,,---,0.00,VWS V14.01,2013-04-16 23:35:00,
2013-04-16 18:40:00,57.5,51.0,29.82,NNW,333,7.0,14.0,79,0.00,,---,0.00,VWS V14.01,2013-04-16 23:40:00,
2013-04-16 18:45:00,57.5,51.0,29.82,North,352,11.0,14.0,79,0.00,,---,0.00,VWS V14.01,2013-04-16 23:45:00,
2013-04-16 18:50:00,57.4,50.6,29.82,North,4,13.0,16.0,78,0.00,,---,0.00,VWS V14.01,2013-04-16 23:50:00,
2013-04-16 18:55:00,57.2,50.4,29.83,NNW,342,7.0,16.0,78,0.00,,---,0.00,VWS V14.01,2013-04-16 23:55:00,
2013-04-16 19:00:00,56.9,50.5,29.83,NW,323,8.0,16.0,79,0.00,,---,0.00,VWS V14.01,2013-04-17 00:00:00,
2013-04-16 19:05:00,56.7,50.3,29.83,North,6,12.0,15.0,79,0.00,,---,0.00,VWS V14.01,2013-04-17 00:05:00,
2013-04-16 19:10:00,56.5,50.4,29.83,NNW,344,11.0,16.0,80,0.00,,---,0.00,VWS V14.01,2013-04-17 00:10:00,
2013-04-16 19:15:00,56.2,50.5,29.83,North,349,8.0,16.0,81,0.00,,---,0.00,VWS V14.01,2013-04-17 00:15:00,
2013-04-16 19:20:00,55.8,50.4,29.83,North,359,14.0,16.0,82,0.00,,---,0.00,VWS V14.01,2013-04-17 00:20:00,
2013-04-16 19:25:00,55.6,50.2,29.83,NNE,16,8.0,16.0,82,0.00,,---,0.00,VWS V14.01,2013-04-17 00:25:00,
2013-04-16 19:30:00,55.4,50.3,29.83,NW,326,9.0,10.0,83,0.00,,---,0.00,VWS V14.01,2013-04-17 00:30:00,
2013-04-16 19:36:00,55.2,50.1,29.83,North,358,8.0,16.0,83,0.00,,---,0.00,VWS V14.01,2013-04-17 00:36:00,
2013-04-16 19:41:00,55.0,49.9,29.83,NNW,332,9.0,18.0,83,0.00,,---,0.00,VWS V14.01,2013-04-17 00:41:00,
2013-04-16 19:46:00,54.8,49.7,29.82,North,356,14.0,18.0,83,0.00,,---,0.00,VWS V14.01,2013-04-17 00:46:00,
2013-04-16 19:51:00,54.7,49.7,29.82,North,349,13.0,18.0,83,0.00,,---,0.00,VWS V14.01,2013-04-17 00:51:00,
2013-04-16 19:56:00,54.6,49.9,29.82,NNW,343,14.0,18.0,84,0.00,,---,0.00,VWS V14.01,2013-04-17 00:56:00,
2013-04-16 20:01:00,54.4,49.7,29.82,NNE,27,16.0,18.0,84,0.00,,---,0.00,VWS V14.01,2013-04-17 01:01:00,
2013-04-16 20:06:00,54.3,49.6,29.82,NNE,19,12.0,18.0,84,0.00,,---,0.00,VWS V14.01,2013-04-17 01:06:00,
2013-04-16 20:11:00,54.1,49.7,29.82,North,357,18.0,18.0,85,0.00,,---,0.00,VWS V14.01,2013-04-17 01:11:00,
2013-04-16 20:16:00,53.8,49.4,29.81,NE,43,13.0,18.0,85,0.00,,---,0.00,VWS V14.01,2013-04-17 01:16:00,
2013-04-16 20:21:00,53.5,49.4,29.81,North,358,18.0,21.0,86,0.00,,---,0.00,VWS V14.01,2013-04-17 01:21:00,
2013-04-16 20:26:00,53.2,49.4,29.81,North,355,15.0,21.0,87,0.00,,---,0.00,VWS V14.01,2013-04-17 01:26:00,
2013-04-16 20:32:00,53.1,49.3,29.81,NNE,19,11.0,15.0,87,0.00,,---,0.00,VWS V14.01,2013-04-17 01:32:00,
2013-04-16 20:37:00,53.2,49.4,29.81,North,5,12.0,17.0,87,0.00,,---,0.00,VWS V14.01,2013-04-17 01:37:00,
2013-04-16 20:42:00,53.1,49.7,29.81,North,6,13.0,17.0,88,0.00,,---,0.00,VWS V14.01,2013-04-17 01:42:00,
2013-04-16 20:47:00,52.9,49.5,29.81,NNE,33,14.0,17.0,88,0.00,,---,0.00,VWS V14.01,2013-04-17 01:47:00,
2013-04-16 20:52:00,52.8,49.3,29.81,North,350,14.0,18.0,88,0.00,,---,0.00,VWS V14.01,2013-04-17 01:52:00,
2013-04-16 20:57:00,52.7,49.2,29.81,North,9,13.0,18.0,88,0.00,,---,0.00,VWS V14.01,2013-04-17 01:57:00,
2013-04-16 21:02:00,52.8,49.3,29.82,NNE,29,12.0,12.0,88,0.00,,---,0.00,VWS V14.01,2013-04-17 02:02:00,
2013-04-16 21:07:00,52.7,49.0,29.81,NNE,18,12.0,16.0,87,0.00,,---,0.00,VWS V14.01,2013-04-17 02:07:00,
2013-04-16 21:12:00,52.7,49.0,29.82,NNE,21,10.0,16.0,87,0.00,,---,0.00,VWS V14.01,2013-04-17 02:12:00,
2013-04-16 21:17:00,52.6,48.8,29.82,NNE,13,7.0,16.0,87,0.00,,---,0.00,VWS V14.01,2013-04-17 02:17:00,
2013-04-16 21:23:00,52.5,48.8,29.82,NNE,18,13.0,16.0,87,0.00,,---,0.00,VWS V14.01,2013-04-17 02:23:00,
2013-04-16 21:28:00,52.4,48.7,29.82,NNE,22,9.0,16.0,87,0.00,,---,0.00,VWS V14.01,2013-04-17 02:28:00,
2013-04-16 21:33:00,52.2,48.8,29.82,North,9,13.0,16.0,88,0.00,,---,0.00,VWS V14.01,2013-04-17 02:33:00,
2013-04-16 21:38:00,52.1,48.7,29.82,NE,41,11.0,16.0,88,0.00,,---,0.00,VWS V14.01,2013-04-17 02:38:00,
2013-04-16 21:43:00,52.0,48.6,29.82,NNE,29,8.0,16.0,88,0.00,,---,0.00,VWS V14.01,2013-04-17 02:43:00,
2013-04-16 21:48:00,51.9,48.5,29.82,NE,37,11.0,16.0,88,0.00,,---,0.00,VWS V14.01,2013-04-17 02:48:00,
2013-04-16 21:53:00,51.8,48.7,29.82,NNE,12,9.0,16.0,89,0.00,,---,0.00,VWS V14.01,2013-04-17 02:53:00,
2013-04-16 21:58:00,51.7,48.6,29.82,NE,44,7.0,16.0,89,0.00,,---,0.00,VWS V14.01,2013-04-17 02:58:00,
2013-04-16 22:03:00,51.5,48.4,29.82,NE,47,8.0,16.0,89,0.00,,---,0.00,VWS V14.01,2013-04-17 03:03:00,
2013-04-16 22:08:00,51.4,48.6,29.82,NNE,32,9.0,16.0,90,0.00,,---,0.00,VWS V14.01,2013-04-17 03:08:00,
2013-04-16 22:13:00,51.2,48.4,29.82,North,4,7.0,16.0,90,0.00,,---,0.00,VWS V14.01,2013-04-17 03:13:00,
2013-04-16 22:18:00,51.2,48.4,29.82,NNE,14,8.0,16.0,90,0.00,,---,0.00,VWS V14.01,2013-04-17 03:18:00,
2013-04-16 22:23:00,51.1,48.3,29.82,North,3,10.0,16.0,90,0.00,,---,0.00,VWS V14.01,2013-04-17 03:23:00,
2013-04-16 22:28:00,51.0,48.2,29.83,North,11,7.0,16.0,90,0.00,,---,0.00,VWS V14.01,2013-04-17 03:28:00,
2013-04-16 22:33:00,50.9,48.1,29.83,North,8,8.0,10.0,90,0.00,,---,0.00,VWS V14.01,2013-04-17 03:33:00,
2013-04-16 22:38:00,50.9,48.4,29.83,North,4,10.0,12.0,91,0.00,,---,0.00,VWS V14.01,2013-04-17 03:38:00,
2013-04-16 22:44:00,50.9,48.4,29.83,North,8,5.0,12.0,91,0.00,,---,0.00,VWS V14.01,2013-04-17 03:44:00,
2013-04-16 22:49:00,50.8,48.3,29.83,North,352,5.0,12.0,91,0.00,,---,0.00,VWS V14.01,2013-04-17 03:49:00,
2013-04-16 22:54:00,50.8,48.3,29.83,North,352,5.0,12.0,91,0.00,,---,0.00,VWS V14.01,2013-04-17 03:54:00,
2013-04-16 22:59:00,50.7,48.2,29.83,NNW,335,4.0,12.0,91,0.00,,---,0.00,VWS V14.01,2013-04-17 03:59:00,
2013-04-16 23:00:00,50.7,48.2,29.83,North,355,4.0,12.0,91,0.00,,---,0.00,VWS V14.01,2013-04-17 04:00:00,
2013-04-16 23:01:00,50.7,48.2,29.83,NNW,333,2.0,3.0,91,0.00,,---,0.00,VWS V14.01,2013-04-17 04:01:00,
2013-04-16 23:03:00,50.6,48.1,29.83,NNE,13,4.0,7.0,91,0.00,,---,0.00,VWS V14.01,2013-04-17 04:03:00,
2013-04-16 23:08:00,50.6,48.1,29.83,NNW,346,6.0,7.0,91,0.00,,---,0.00,VWS V14.01,2013-04-17 04:08:00,
2013-04-16 23:13:00,50.6,48.1,29.83,North,1,4.0,8.0,91,0.00,,---,0.00,VWS V14.01,2013-04-17 04:13:00,
2013-04-16 23:18:00,50.6,48.1,29.83,NNW,344,6.0,9.0,91,0.00,,---,0.00,VWS V14.01,2013-04-17 04:18:00,
2013-04-16 23:23:00,50.5,48.0,29.82,NNE,15,4.0,9.0,91,0.00,,---,0.00,VWS V14.01,2013-04-17 04:23:00,
2013-04-16 23:28:00,50.5,48.0,29.82,NNE,14,3.0,9.0,91,0.00,,---,0.00,VWS V14.01,2013-04-17 04:28:00,
2013-04-16 23:33:00,50.4,47.9,29.82,NNE,30,4.0,6.0,91,0.00,,---,0.00,VWS V14.01,2013-04-17 04:33:00,
2013-04-16 23:38:00,50.4,47.9,29.82,NNE,13,3.0,6.0,91,0.00,,---,0.00,VWS V14.01,2013-04-17 04:38:00,
2013-04-16 23:43:00,50.4,47.9,29.81,NNE,19,4.0,6.0,91,0.00,,---,0.00,VWS V14.01,2013-04-17 04:43:00,
2013-04-16 23:48:00,50.3,48.1,29.81,NNE,15,2.0,6.0,92,0.00,,---,0.00,VWS V14.01,2013-04-17 04:48:00,
2013-04-16 23:53:00,50.3,48.1,29.82,NNE,16,4.0,6.0,92,0.00,,---,0.00,VWS V14.01,2013-04-17 04:53:00,
2013-04-16 23:58:00,50.3,48.1,29.81,North,6,2.0,6.0,92,0.00,,---,0.00,VWS V14.01,2013-04-17 04:58:00,